Content
SEND FEEDBACK

Daily
Averages
Monthly
Summary
United States of America

NEW YORK - CENTRAL PARK, NEW YORK


Home > North America > United States > New York
Elevation: 14 feet     Latitude: 40 47N     Longitude: 073 58W

WEATHER
 
SELECT A DAY
Number of Records: 148,168;   Date Range: 11/1/95 - 8/12/14
 
SHARE

PRINT THIS DATA

[ ← Previous Day ]
WEATHER ALMANAC - MARCH 13, 2014
[ Next Day → ]
[ °C ]   °F
Weather ElementAverageHighLow
Temperature23.4 °F30.9 °F (1:32 am)19 °F (6:51 am)
Dewpoint1.9 °F18 °F (1:32 am)-5.1 °F (8:51 pm)
Humidity40.6 %61 % (1:51 am)27 % (3:51 pm)
Barometer29.65 in30.09 in (11:51 pm)29.23 in (1:32 am)
Wind Speed14.3 mph19.6 mph (3:51 am)
Wind Gust35.7 mph (3:51 am)
Weather ElementAverage
Visibility10 mi
Wind DirectionWNW (295 °)

Weather ElementTotal
Precipitation---
Heating Degree Days40.1 (Base 65)
Averaged from 24 records on March 13, 2014
WEATHER CONDITIONS BREAKOUT
WIND DIRECTION BREAKOUT
WEATHER BY HOUR - MARCH 13, 2014
[ °C ]   °F
Local TimeTemperatureDewpointHumidityBarometerVisibilityWind DirectionWind SpeedGust SpeedPrecipitationEventsConditions
1:32 AM30.9 °F18.0 °F59 %29.23 in10.0 miNW (310°)11.5 mph32.2 mphOvercast
1:51 AM28.0 °F16.0 °F61 %29.23 in10.0 miWNW (290°)13.8 mph31.1 mphOvercast
2:51 AM25.0 °F10.0 °F53 %29.27 in10.0 miWNW (300°)13.8 mph27.6 mphOvercast
3:51 AM23.0 °F7.0 °F50 %29.29 in10.0 miNW (310°)19.6 mph35.7 mphOvercast
4:51 AM21.0 °F6.1 °F53 %29.37 in10.0 miWNW (300°)11.5 mph29.9 mphOvercast
5:51 AM19.9 °F3.0 °F48 %29.42 in10.0 miNW (310°)17.3 mph32.2 mphOvercast
6:51 AM19.0 °F1.9 °F47 %29.46 in10.0 miNW (320°)17.3 mph25.3 mphOvercast
7:51 AM19.0 °F1.9 °F47 %29.53 in10.0 miNorthScattered Clouds
8:51 AM19.0 °F1.9 °F47 %29.56 in10.0 miNW (310°)16.1 mph28.8 mphOvercast
9:51 AM19.9 °F1.0 °F44 %29.59 in10.0 miNW (320°)15.0 mph35.7 mphOvercast
10:51 AM19.9 °F0.0 °F42 %29.62 in10.0 miNW (320°)11.5 mph35.7 mphOvercast
11:51 AM21.9 °F1.9 °F42 %29.64 in10.0 miNW (310°)13.8 mph28.8 mphMostly Cloudy
12:51 PM23.0 °F1.0 °F39 %29.67 in10.0 miNW (310°)16.1 mph28.8 mphMostly Cloudy
1:51 PM26.1 °F3.9 °F39 %29.68 in10.0 miWNW (290°)12.7 mph23.0 mphScattered Clouds
2:51 PM27.0 °F-0.9 °F30 %29.70 in10.0 miNW (310°)12.7 mph26.5 mphPartly Cloudy
3:51 PM27.0 °F-2.9 °F27 %29.73 in10.0 miNW (310°)13.8 mph32.2 mphClear
4:51 PM27.0 °F-0.9 °F30 %29.76 in10.0 miWNW (290°)13.8 mph27.6 mphClear
5:51 PM26.1 °F-2.9 °F28 %29.81 in10.0 miNW (310°)18.4 mph32.2 mphClear
6:51 PM25.0 °F-4.0 °F28 %29.87 in10.0 miNW (310°)13.8 mph23.0 mphClear
7:51 PM24.1 °F-4.0 °F29 %29.93 in10.0 miNW (310°)15.0 mph29.9 mphClear
8:51 PM24.1 °F-5.1 °F28 %29.98 in10.0 miNW (310°)12.7 mph29.9 mphClear
9:51 PM23.0 °F-4.0 °F31 %30.02 in10.0 miNW (310°)12.7 mph25.3 mphClear
10:51 PM21.9 °F-2.0 °F35 %30.06 in10.0 miNW (310°)11.5 mph21.9 mphClear
11:51 PM21.9 °F-0.9 °F37 %30.09 in10.0 miNW (310°)15.0 mph19.6 mphClear
Hourly data recorded from KNYC, located miles away from New York - Central Park, New York







STORIES FROM OUR PARTNERS